EWS-G3 (GOES 14)

Last updated on Thu Aug 20 2026 00:02:39 GMT+0000 (Coordinated Universal Time)

1 35491U 09033A 26231.57781072 -.00000287 00000+0 00000+0 0 9994 2 35491 1.8483 82.2101 0002197 62.7707 132.7200 1.00079880 7229
UTC large
Height (km)
Speed (km/s)
/
Latitude / Longitude
Inclination (degrees)
Orbital Period (minutes)
Azimuth
Elevation
Range (km)
Doppler Factor

Next 0 passes for location: London (51.5072 / 0.1276)

No passes found over London.
EWS-G3 (GOES 14)